TimeAKDT,TemperatureF,Dew PointF,Humidity,Sea Level PressureIn,VisibilityMPH,Wind Direction,Wind SpeedMPH,Gust SpeedMPH,PrecipitationIn,Events,Conditions,WindDirDegrees,DateUTC
12:53 AM,55.9,52.0,87,30.23,10.0,NNE,3.5,-,N/A,,Mostly Cloudy,30,2013-07-28 08:53:00
1:53 AM,55.0,52.0,89,30.24,10.0,Calm,Calm,-,N/A,,Partly Cloudy,0,2013-07-28 09:53:00
2:53 AM,53.1,50.0,89,30.25,10.0,Calm,Calm,-,N/A,,Scattered Clouds,0,2013-07-28 10:53:00
3:53 AM,54.0,51.1,90,30.24,10.0,NE,3.5,-,N/A,,Mostly Cloudy,50,2013-07-28 11:53:00
4:53 AM,52.0,50.0,93,30.24,10.0,NNE,3.5,-,N/A,,Clear,20,2013-07-28 12:53:00
5:53 AM,53.1,50.0,89,30.23,10.0,Calm,Calm,-,N/A,,Clear,0,2013-07-28 13:53:00
6:53 AM,54.0,51.1,90,30.22,10.0,Calm,Calm,-,N/A,,Clear,0,2013-07-28 14:53:00
7:53 AM,57.9,53.1,84,30.21,10.0,NE,3.5,-,N/A,,Clear,40,2013-07-28 15:53:00
8:53 AM,61.0,53.1,75,30.20,10.0,Calm,Calm,-,N/A,,Clear,0,2013-07-28 16:53:00
9:53 AM,60.1,53.1,78,30.19,10.0,Calm,Calm,-,N/A,,Clear,0,2013-07-28 17:53:00
10:53 AM,62.1,55.0,78,30.17,10.0,SW,3.5,-,N/A,,Clear,220,2013-07-28 18:53:00
11:53 AM,62.1,54.0,75,30.16,10.0,SW,3.5,-,N/A,,Clear,230,2013-07-28 19:53:00
12:53 PM,63.0,53.1,70,30.14,10.0,SW,6.9,-,N/A,,Clear,220,2013-07-28 20:53:00
1:53 PM,66.9,53.1,61,30.12,10.0,SW,6.9,-,N/A,,Clear,230,2013-07-28 21:53:00
2:53 PM,64.9,53.1,65,30.11,10.0,SW,6.9,-,N/A,,Clear,230,2013-07-28 22:53:00
3:53 PM,70.0,51.1,51,30.11,10.0,SSW,3.5,-,N/A,,Partly Cloudy,210,2013-07-28 23:53:00
4:53 PM,70.0,51.1,51,30.09,10.0,SSW,4.6,-,N/A,,Clear,210,2013-07-29 00:53:00
5:53 PM,71.1,52.0,51,30.08,10.0,Calm,Calm,-,N/A,,Clear,0,2013-07-29 01:53:00
6:53 PM,72.0,53.1,51,30.08,10.0,Calm,Calm,-,N/A,,Scattered Clouds,0,2013-07-29 02:53:00
7:53 PM,68.0,54.0,61,30.09,10.0,Calm,Calm,-,N/A,,Clear,0,2013-07-29 03:53:00
8:53 PM,66.9,55.9,68,30.09,10.0,NE,4.6,-,N/A,,Clear,40,2013-07-29 04:53:00
9:53 PM,64.9,55.0,70,30.10,10.0,NE,3.5,-,N/A,,Clear,40,2013-07-29 05:53:00
10:53 PM,63.0,54.0,72,30.12,10.0,NNE,3.5,-,N/A,,Clear,30,2013-07-29 06:53:00
11:53 PM,60.1,53.1,78,30.12,10.0,Calm,Calm,-,N/A,,Clear,0,2013-07-29 07:53:00